Weather History for Winner, SD

Change the Weather History Date:

Thursday, February 14, 2013

  Actual Average Record
Temperature  
Mean Temperature 27 °F 27 °F  
Max Temperature 37 °F 37 °F 53 °F (2011)
Min Temperature 17 °F 17 °F 15 °F (2014)
Degree Days  
Heating Degree Days 38 38  
Month to date heating degree days 449 549  
Since 1 July heating degree days 4089 4504  
Cooling Degree Days 0 0  
Month to date cooling degree days 0 0  
Year to date cooling degree days 0 0  
Moisture  
Dew Point 23 °F    
Average Humidity 71    
Maximum Humidity 81    
Minimum Humidity 61    
Precipitation  
Precipitation T in 0.02 in 0.00 in (2014)
Month to date precipitation T 0.25  
Year to date precipitation T 0.50  
Sea Level Pressure  
Sea Level Pressure 30.13 in    
Wind  
Wind Speed 17 mph (NW)    
Max Wind Speed 49 mph    
Max Gust Speed 59 mph    
Visibility 7 miles    
Events Fog , Snow    
T = Trace of Precipitation, MM = Missing Value Source: NWS Daily Summary

Daily Weather History Graph

Daily Weather History Graph

Search for Another Location

Airport:

Trip Planner

Search our weather history database for the weather conditions in past years. The results will help you decide how hot, cold, wet, or windy it might be!

Date:

Astronomy

Feb. 14, 2013 Rise Set
Actual Time 7:38 AM CST 6:09 PM CST
Civil Twilight 7:09 AM CST 6:38 PM CST
Nautical Twilight 6:35 AM CST 7:12 PM CST
Astronomical Twilight 6:02 AM CST 7:45 PM CST
Moon 9:31 AM CST (2/14) 11:24 PM CST (2/14)
Length of Visible Light 11h 29m
Length of Day
10h 30m
Waxing Crescent, 22% of the Moon is Illuminated
Feb 14
Waxing Crescent
Feb 17
First Quarter
Feb 25
Full
Mar 4
Last Quarter
Mar 11
New

Hourly Weather History & Observations

Time (CST) Temp. Windchill Dew Point Humidity Pressure Visibility Wind Dir Wind Speed Gust Speed Precip Events Conditions
12:53 AM 37.0 °F 27.0 °F 30.0 °F 76% 29.91 in 10.0 mi WNW 18.4 mph - N/A   Overcast
1:53 AM 37.0 °F 26.4 °F 30.0 °F 76% 29.93 in 10.0 mi WNW 20.7 mph - N/A   Mostly Cloudy
2:53 AM 36.0 °F 25.3 °F 28.9 °F 76% 29.94 in 10.0 mi WNW 19.6 mph - N/A   Mostly Cloudy
3:53 AM 32.0 °F 22.5 °F 26.1 °F 79% 29.94 in 10.0 mi WNW 12.7 mph - N/A   Clear
4:53 AM 30.9 °F 21.2 °F 25.0 °F 79% 29.97 in 10.0 mi West 12.7 mph - N/A   Clear
5:53 AM 30.9 °F 19.8 °F 23.0 °F 72% 29.99 in 10.0 mi West 16.1 mph - N/A   Clear
6:53 AM 32.0 °F 22.1 °F 24.1 °F 73% 30.01 in 10.0 mi WNW 13.8 mph - N/A   Mostly Cloudy
7:53 AM 33.1 °F 22.2 °F 24.1 °F 70% 30.03 in 10.0 mi WNW 17.3 mph - N/A   Overcast
8:53 AM 33.1 °F 23.0 °F 24.1 °F 70% 30.04 in 10.0 mi WNW 15.0 mph - N/A   Overcast
9:53 AM 34.0 °F 22.4 °F 21.9 °F 61% 30.05 in 10.0 mi WNW 20.7 mph 33.4 mph N/A   Overcast
10:53 AM 34.0 °F 22.4 °F 23.0 °F 64% 30.06 in 10.0 mi WNW 20.7 mph 36.8 mph N/A   Overcast
11:53 AM 35.1 °F 22.7 °F 24.1 °F 64% 30.06 in 10.0 mi WNW 25.3 mph 33.4 mph 0.00 in   Overcast
12:21 PM 33.8 °F 21.0 °F 24.8 °F 70% 30.02 in 6.0 mi WNW 25.3 mph 39.1 mph 0.00 in Snow Light Snow
12:53 PM 33.1 °F 20.1 °F 26.1 °F 75% 30.09 in 5.0 mi NW 25.3 mph 35.7 mph 0.00 in Snow Light Snow
1:02 PM 32.0 °F 17.9 °F 26.6 °F 80% 30.04 in 2.0 mi NW 28.8 mph 36.8 mph 0.00 in Snow Light Snow
1:11 PM 32.0 °F 17.0 °F 28.4 °F 87% 30.04 in 0.8 mi NW 33.4 mph 43.7 mph 0.00 in Snow Light Snow
1:19 PM 30.2 °F 13.9 °F 26.6 °F 86% 30.05 in 0.5 mi NW 36.8 mph 51.8 mph 0.00 in Fog , Snow Snow
1:26 PM 28.4 °F 11.2 °F 24.8 °F 86% 30.06 in 0.8 mi NW 38.0 mph 47.2 mph 0.00 in Snow Light Snow
1:29 PM 28.4 °F 12.0 °F 24.8 °F 86% 30.06 in 1.2 mi NW 33.4 mph 47.2 mph 0.00 in Snow Light Snow
1:51 PM 28.4 °F 10.8 °F 21.2 °F 74% 30.07 in 2.5 mi NW 40.3 mph 51.8 mph 0.00 in Snow Light Snow
1:53 PM 28.0 °F 10.5 °F 21.9 °F 78% 30.13 in 3.0 mi NW 39.1 mph 51.8 mph 0.00 in Snow Light Snow
2:01 PM 26.6 °F 7.7 °F 21.2 °F 80% 30.08 in 1.8 mi NW 43.7 mph 57.5 mph 0.00 in Snow Light Snow
2:21 PM 26.6 °F 9.3 °F 21.2 °F 80% 30.13 in 0.5 mi NNW 34.5 mph 52.9 mph 0.00 in Fog , Snow Snow
2:29 PM 24.8 °F 6.4 °F 21.2 °F 86% 30.15 in 1.0 mi NNW 36.8 mph 46.0 mph 0.00 in Snow Light Snow
2:38 PM 24.8 °F 6.6 °F 19.4 °F 80% 30.16 in 2.0 mi North 35.7 mph 46.0 mph 0.00 in Snow Light Snow
2:42 PM 24.8 °F 7.9 °F 21.2 °F 86% 30.16 in 3.0 mi North 29.9 mph 42.6 mph 0.00 in Snow Light Snow
2:53 PM 25.0 °F 7.8 °F 19.9 °F 81% 30.24 in 9.0 mi North 31.1 mph 42.6 mph 0.00 in   Overcast
3:43 PM 26.6 °F 10.8 °F 21.2 °F 80% 30.21 in 4.0 mi NNW 27.6 mph 32.2 mph 0.00 in Snow Light Snow
3:53 PM 26.1 °F 11.0 °F 21.0 °F 81% 30.29 in 7.0 mi North 24.2 mph 31.1 mph 0.00 in Snow Light Snow
4:07 PM 24.8 °F 9.0 °F 19.4 °F 80% 30.22 in 10.0 mi North 25.3 mph - 0.00 in   Overcast
4:53 PM 26.1 °F 12.0 °F 19.0 °F 75% 30.31 in 10.0 mi North 20.7 mph - 0.00 in   Overcast
5:48 PM 24.8 °F 11.9 °F 19.4 °F 80% 30.25 in 10.0 mi North 16.1 mph - N/A   Overcast
5:53 PM 25.0 °F 13.1 °F 19.0 °F 78% 30.33 in 10.0 mi North 13.8 mph - N/A   Overcast
6:53 PM 25.0 °F 14.2 °F 19.0 °F 78% 30.35 in 10.0 mi North 11.5 mph - N/A   Overcast
7:53 PM 25.0 °F 17.1 °F 19.0 °F 78% 30.36 in 10.0 mi NNW 6.9 mph - N/A   Overcast
8:53 PM 25.0 °F 20.7 °F 19.0 °F 78% 30.36 in 10.0 mi NNW 3.5 mph - N/A   Overcast
9:53 PM 24.1 °F 18.2 °F 19.0 °F 81% 30.36 in 10.0 mi WNW 4.6 mph - N/A   Overcast
10:53 PM 21.0 °F 14.6 °F 16.0 °F 81% 30.38 in 10.0 mi WNW 4.6 mph - N/A   Scattered Clouds
11:53 PM 18.0 °F 8.7 °F 12.9 °F 81% 30.37 in 10.0 mi West 6.9 mph - N/A   Clear